Wind_Speed
35 33 32 36 39 28 28 33 37 28 15 20 7 28 25 25 25 24 27 25 26 27 21 20 23 23 21 15 19 17 10 19 16 13 17 18 17 16 12 13 14 14 7 11
33 27 22 31 29 31 29 29 26 27 18 22 27 32 27 23 22 32 33 28 25 27 28 23 23 26 25 25 24 20 16 14 21 18 14 18 19 22 18 16 18 14 17 16
36 29 24 35 42 34 31 33 33 28 25 26 2 22 25 27 32 36 31 27 23 21 20 23 28 30 30 30 27 23 24 20 19 23 25 23 25 26 23 22 22 20 22 22
33 38 30 29 30 30 31 34 33 33 36 35 35 36 29 31 31 19 20 23 18 20 23 29 32 36 35 33 28 22 25 24 20 27 31 26 26 27 27 24 27 29 28 29
30 32 31 33 28 32 35 39 35 39 37 36 42 39 31 27 33 39 32 20 20 26 29 31 37 40 33 30 25 21 23 23 22 25 32 29 29 28 26 30 30 34 35 33
36 39 38 36 31 33 36 35 34 33 34 38 33 32 30 29 21 27 21 17 20 21 30 39 40 32 25 21 22 20 23 23 24 23 30 30 26 28 28 28 30 29 32 30
39 41 34 30 27 35 32 32 32 31 29 29 26 31 35 30 33 26 19 29 30 29 39 43 33 23 18 17 18 19 20 22 23 22 27 27 24 24 23 23 25 26 26 23
39 40 30 31 32 27 26 30 29 30 26 28 19 31 40 40 36 29 33 33 40 43 43 31 23 23 22 22 21 21 18 22 26 26 27 27 24 21 18 18 14 11 13 14
35 34 36 35 33 27 29 33 26 32 28 25 24 28 31 35 40 35 38 42 46 44 32 26 24 26 28 27 26 22 19 22 23 24 24 24 22 21 21 18 15 11 12 16
37 32 33 35 31 39 32 30 30 30 35 34 31 33 29 15 29 28 39 42 38 30 29 28 31 29 29 28 25 24 21 23 25 23 22 23 21 21 19 16 16 17 20 23
44 43 38 34 39 37 41 29 36 39 38 39 32 36 38 43 43 46 44 33 30 32 31 32 32 31 27 27 25 24 21 19 21 24 28 26 24 23 24 25 21 21 25 29
43 45 40 32 37 42 43 39 35 29 34 41 32 40 43 39 45 40 29 33 31 33 32 29 29 29 27 28 25 23 20 20 23 25 26 27 30 28 29 19 20 25 27 27
35 35 36 34 39 37 29 32 40 39 47 49 45 42 32 31 30 31 30 30 32 31 32 28 26 25 24 28 27 23 21 21 28 30 30 32 33 36 27 21 25 26 32 33
44 47 43 46 43 44 47 48 52 52 59 45 34 33 33 31 27 30 34 35 33 31 25 22 25 27 20 27 27 26 24 25 33 33 35 36 37 32 29 30 32 33 32 34
42 39 40 57 48 45 49 45 37 41 41 43 38 33 31 14 24 34 31 36 34 25 16 5 31 33 26 27 26 27 27 28 35 38 37 38 35 33 32 33 39 38 36 37
41 36 34 39 33 43 45 40 31 34 38 41 41 41 42 31 36 39 36 40 37 24 12 18 18 40 32 29 25 28 30 29 37 40 40 41 39 40 41 41 39 39 35 36
40 37 36 38 37 45 38 38 44 42 35 39 40 38 39 41 38 38 37 38 37 28 20 25 38 33 30 25 21 22 29 32 31 39 41 42 42 43 45 42 32 34 32 30
32 28 15 35 38 42 47 40 36 36 38 45 42 39 43 47 37 37 38 41 36 32 28 24 28 28 23 20 22 21 21 24 33 35 42 43 43 45 35 31 30 27 27 23
41 39 41 36 35 42 44 40 21 30 37 41 46 44 48 48 38 44 38 39 39 35 30 26 24 27 25 23 21 20 24 28 26 26 27 32 33 30 30 30 29 27 23 20
37 37 43 42 41 36 38 34 13 31 36 23 29 44 48 55 45 41 41 41 40 40 32 27 25 23 28 29 28 29 26 26 26 28 31 32 34 30 30 32 31 27 19 18
31 22 24 24 35 39 43 25 50 49 45 45 44 43 49 54 53 46 45 34 30 31 33 28 28 25 27 30 34 31 30 28 28 29 28 29 29 31 33 32 30 23 17 19
29 30 30 17 42 46 45 52 47 54 42 44 51 57 64 58 60 55 50 45 48 47 41 32 30 28 25 26 30 35 36 34 32 30 30 34 35 35 34 28 21 17 18 23
38 40 42 45 45 44 41 43 44 47 55 57 53 64 69 57 56 58 50 45 44 41 36 35 33 30 28 28 28 28 32 33 38 37 35 34 35 33 26 22 19 18 20 20
45 42 45 49 54 47 48 50 48 44 47 49 48 48 54 51 47 45 45 40 39 40 39 39 38 32 30 29 29 29 27 27 28 26 26 26 24 25 23 24 20 21 21 22
55 52 54 56 62 58 53 54 53 50 49 49 47 47 48 44 43 42 45 40 39 41 41 37 35 33 30 30 28 28 26 24 22 22 21 20 19 17 20 23 22 22 25 30
61 63 61 60 64 66 62 59 57 56 56 56 56 55 54 50 47 43 39 44 43 40 38 37 33 32 31 30 29 29 26 24 24 23 21 20 22 23 22 21 24 26 30 22
Wind_Direction
211 209 205 214 220 232 239 215 213 221 251 234 294 275 272 270 281 293 300 306 297 302 310 305 308 307 319 284 304 296 266 240 230 222 220 227 221 232 229 223 217 229 238 262
197 195 220 203 211 220 221 223 236 238 240 246 258 260 253 264 269 286 289 291 293 293 302 306 306 308 308 311 299 270 263 248 236 224 213 227 235 231 228 231 227 235 234 244
194 193 199 206 208 216 221 217 223 228 233 234 132 258 250 264 278 277 272 277 291 297 293 300 307 306 302 304 290 270 258 256 241 228 202 218 229 233 232 234 237 248 234 235
186 203 209 222 217 221 218 220 218 225 227 232 240 259 278 280 277 260 274 285 279 281 283 302 305 304 297 297 291 267 251 255 248 229 218 224 233 237 246 241 248 252 251 238
194 205 211 212 215 221 219 222 223 223 232 240 249 250 265 280 260 263 275 270 268 281 288 298 297 298 288 287 284 260 251 251 254 243 227 229 239 244 250 247 249 254 257 262
186 199 205 220 219 213 221 224 228 229 234 238 241 241 251 249 274 299 261 258 289 290 288 301 298 290 280 273 279 270 254 249 251 248 234 234 244 247 251 255 256 256 257 264
200 207 204 203 224 222 227 232 233 233 237 247 243 252 248 256 267 258 270 285 284 292 304 306 287 276 274 275 283 277 269 243 239 243 240 236 235 242 238 245 248 247 249 254
212 209 217 221 225 229 236 239 239 245 245 247 239 247 253 253 266 281 287 289 296 298 304 287 284 287 282 278 276 278 275 247 239 240 241 244 235 231 228 229 217 231 242 262
208 207 198 212 229 229 229 242 246 244 254 249 248 252 259 283 291 284 287 290 295 298 282 273 274 277 281 280 276 272 265 249 246 246 243 229 215 228 225 208 202 212 253 270
211 222 210 198 224 230 227 227 243 239 242 243 239 248 247 296 264 268 275 292 289 275 272 276 278 275 275 270 266 263 256 256 246 238 222 210 211 205 196 195 214 237 299 285
218 217 223 211 207 213 226 232 232 236 239 242 254 252 250 254 279 277 281 272 266 273 278 279 279 276 274 270 262 258 254 244 238 226 210 212 198 194 198 214 235 262 298 292
214 219 223 206 216 223 226 231 238 244 262 263 262 271 272 258 272 268 259 266 275 282 285 283 272 275 276 271 258 249 242 242 228 215 210 214 211 212 220 245 277 278 288 294
223 221 225 229 237 237 232 240 252 256 260 259 262 262 259 273 259 266 270 269 279 290 296 290 281 279 278 267 254 238 230 238 221 217 215 216 215 223 220 260 291 293 299 289
239 240 241 243 245 248 247 251 256 257 265 260 255 257 258 266 283 264 270 283 288 301 297 302 293 280 277 266 247 235 222 227 219 221 225 224 226 230 239 266 289 295 297 293
236 241 242 242 242 249 253 249 248 252 255 261 257 251 251 257 241 273 276 279 285 294 295 23 250 279 274 260 240 232 224 223 223 227 231 231 235 241 254 279 287 293 294 292
224 228 237 244 243 247 244 241 236 242 245 251 247 246 257 236 246 263 273 280 289 287 253 156 231 263 264 251 234 224 224 228 226 234 240 244 252 256 261 279 283 285 288 286
236 232 235 238 237 240 247 248 240 247 259 257 255 262 264 241 263 269 274 277 285 283 252 231 241 248 244 245 234 229 228 230 235 238 244 249 253 262 269 275 275 278 282 278
243 227 242 238 250 245 240 243 247 248 253 259 260 260 264 258 262 263 269 273 278 279 268 244 239 243 242 247 233 235 239 242 242 248 247 248 252 259 268 276 277 276 281 285
234 207 211 210 234 240 243 244 262 287 282 283 266 264 262 263 255 260 262 269 275 274 268 258 243 233 236 230 236 246 255 254 250 246 249 251 257 265 269 276 276 279 276 293
233 231 229 242 239 241 239 238 228 253 246 263 262 251 256 260 260 262 259 261 274 273 269 259 248 241 234 229 235 236 243 252 254 261 262 265 261 262 271 279 280 277 271 290
221 228 245 252 244 236 215 204 248 229 245 230 240 252 258 267 265 257 257 257 260 269 274 260 251 244 239 238 238 240 241 248 252 260 258 257 263 272 275 281 280 266 271 287
226 213 216 228 258 247 236 237 238 228 250 241 251 253 255 258 261 259 254 252 251 260 269 265 251 247 245 239 239 238 241 245 249 254 259 265 271 274 278 283 268 266 275 289
240 224 226 236 241 242 239 244 231 224 232 237 241 242 245 253 258 257 257 255 257 257 254 255 247 242 241 247 247 246 246 249 250 253 258 263 268 274 276 275 261 267 278 290
248 243 244 247 248 242 243 244 247 244 243 243 244 245 248 250 243 247 252 249 247 247 245 243 245 239 237 237 244 249 251 256 258 257 254 262 270 272 266 268 259 274 279 296
259 254 250 250 253 248 241 243 245 247 247 251 253 253 254 253 252 243 243 242 240 241 241 242 242 241 240 240 240 245 247 251 252 259 261 259 272 273 264 259 266 279 287 291
257 257 253 250 255 259 253 246 246 247 244 242 244 245 247 249 250 251 246 237 236 238 240 242 241 239 242 241 238 242 242 245 252 253 252 249 247 263 266 265 270 278 283 273
Height
10955 10959 10966 10976 10978 10981 10987 10991 10998 10994 10997 10999 11009 10999 11003 11001 11002 11001 11001 11001 11000 10999 10998 10997 10996 10994 10994 10993 10993 10993 10994 10995 10996 10995 10995 10997 11000 11000 11000 11000 11001 11000 11003 11007
10948 10960 10964 10969 10970 10975 10980 10988 10991 10991 10994 11000 11002 10997 10994 10993 10996 10997 10998 10997 10996 10996 10995 10994 10992 10991 10989 10989 10989 10989 10990 10990 10992 10993 10993 10995 10997 10998 11000 10999 10999 11001 11003 11006
10946 10952 10957 10963 10969 10972 10977 10982 10987 10990 10993 10993 10995 10989 10988 10988 10990 10991 10993 10991 10990 10991 10990 10990 10988 10986 10985 10984 10983 10983 10984 10986 10987 10989 10991 10993 10994 10995 10996 10998 11000 11001 11003 11004
10943 10946 10951 10959 10962 10968 10974 10977 10985 10985 10984 10987 10990 10988 10989 10985 10987 10987 10988 10988 10985 10986 10986 10985 10983 10981 10979 10977 10976 10976 10977 10980 10982 10984 10986 10987 10989 10991 10993 10995 10996 10997 10998 10999
10940 10941 10946 10952 10959 10964 10966 10971 10978 10980 10982 10983 10975 10983 10985 10983 10980 10981 10983 10983 10982 10979 10979 10978 10976 10973 10971 10970 10969 10970 10972 10974 10975 10977 10981 10983 10985 10987 10989 10991 10993 10993 10994 10995
10933 10938 10944 10951 10957 10958 10959 10964 10970 10974 10977 10974 10980 10982 10981 10977 10979 10978 10976 10975 10974 10972 10973 10969 10967 10964 10963 10964 10964 10965 10967 10969 10970 10970 10973 10977 10979 10982 10984 10986 10987 10988 10988 10989
10929 10933 10940 10946 10949 10953 10956 10959 10962 10965 10969 10967 10974 10972 10972 10971 10972 10973 10970 10969 10967 10966 10964 10963 10961 10961 10960 10960 10960 10960 10961 10964 10966 10967 10969 10972 10974 10975 10978 10979 10980 10981 10982 10984
10925 10930 10936 10940 10944 10948 10952 10953 10956 10960 10964 10959 10965 10957 10954 10956 10964 10961 10958 10957 10956 10959 10961 10961 10956 10953 10955 10957 10957 10957 10958 10960 10961 10963 10965 10967 10970 10972 10973 10974 10977 10979 10979 10980
10922 10927 10933 10938 10940 10943 10947 10948 10955 10954 10957 10962 10960 10956 10956 10956 10954 10953 10950 10948 10954 10955 10954 10955 10954 10954 10949 10950 10952 10952 10953 10954 10956 10957 10959 10962 10965 10967 10969 10973 10975 10976 10976 10975
10919 10920 10922 10928 10933 10936 10941 10946 10948 10952 10952 10953 10954 10954 10960 10956 10947 10949 10945 10949 10950 10950 10949 10947 10945 10945 10945 10946 10946 10947 10948 10949 10951 10953 10955 10959 10961 10964 10967 10969 10971 10972 10972 10971
10912 10915 10919 10925 10926 10931 10937 10939 10942 10944 10945 10946 10951 10951 10954 10950 10944 10941 10944 10946 10946 10944 10943 10940 10938 10937 10938 10939 10940 10941 10943 10945 10946 10948 10951 10955 10959 10961 10963 10965 10967 10967 10968 10966
10906 10909 10912 10919 10922 10925 10932 10934 10936 10939 10939 10935 10948 10944 10943 10945 10942 10938 10943 10939 10938 10937 10935 10935 10934 10932 10933 10933 10935 10937 10939 10941 10943 10946 10950 10953 10956 10957 10958 10961 10962 10961 10960 10959
10905 10909 10910 10914 10915 10917 10924 10929 10929 10932 10922 10925 10931 10936 10935 10934 10934 10933 10931 10934 10930 10931 10932 10931 10930 10929 10931 10929 10929 10931 10934 10936 10940 10943 10945 10948 10950 10952 10954 10956 10956 10955 10954 10952
10902 10902 10905 10906 10906 10913 10918 10920 10920 10920 10911 10919 10921 10922 10924 10923 10924 10923 10924 10921 10925 10929 10928 10926 10920 10921 10923 10926 10924 10926 10928 10932 10935 10939 10941 10943 10945 10948 10952 10951 10950 10949 10948 10946
10894 10900 10902 10898 10906 10906 10908 10910 10911 10912 10908 10908 10910 10913 10915 10921 10918 10912 10917 10918 10920 10926 10929 10925 10902 10916 10921 10923 10920 10921 10923 10926 10931 10934 10936 10939 10942 10945 10946 10945 10943 10941 10942 10941
10879 10884 10890 10891 10903 10897 10897 10901 10902 10904 10901 10903 10905 10908 10902 10921 10915 10913 10913 10911 10912 10920 10930 10939 10933 10907 10920 10919 10916 10916 10918 10922 10926 10929 10932 10936 10939 10940 10940 10938 10937 10936 10936 10934
10873 10878 10884 10885 10888 10885 10894 10892 10890 10891 10897 10893 10894 10904 10905 10907 10910 10908 10907 10904 10904 10907 10918 10923 10916 10914 10916 10911 10910 10911 10914 10918 10921 10924 10927 10930 10932 10932 10932 10932 10932 10931 10929 10928
10865 10873 10874 10877 10879 10882 10875 10884 10887 10890 10889 10881 10888 10894 10893 10890 10901 10900 10900 10896 10897 10897 10900 10907 10909 10907 10904 10904 10905 10907 10910 10913 10915 10918 10919 10922 10925 10924 10926 10926 10926 10924 10923 10922
10856 10863 10863 10864 10862 10868 10873 10878 10880 10880 10884 10880 10881 10878 10879 10878 10893 10890 10894 10891 10891 10891 10890 10893 10895 10896 10897 10898 10900 10903 10905 10907 10909 10912 10913 10915 10917 10919 10920 10920 10918 10918 10918 10917
10844 10849 10855 10856 10859 10863 10861 10869 10876 10872 10874 10875 10871 10868 10870 10868 10879 10888 10887 10886 10884 10884 10884 10884 10887 10888 10890 10892 10894 10896 10899 10902 10904 10907 10909 10909 10910 10910 10911 10911 10912 10912 10912 10912
10840 10840 10850 10846 10849 10848 10841 10844 10862 10860 10862 10867 10862 10860 10859 10860 10866 10875 10877 10879 10876 10874 10878 10878 10880 10882 10883 10885 10887 10891 10893 10896 10898 10901 10902 10902 10903 10904 10904 10905 10905 10906 10906 10907
10830 10832 10831 10831 10830 10832 10841 10841 10847 10854 10855 10850 10852 10852 10849 10853 10855 10859 10865 10868 10869 10871 10870 10870 10873 10876 10877 10879 10881 10884 10887 10890 10892 10894 10895 10896 10897 10897 10899 10899 10899 10900 10902 10902
10816 10820 10823 10817 10822 10824 10829 10826 10829 10838 10838 10836 10839 10840 10837 10846 10847 10847 10850 10855 10858 10861 10863 10862 10865 10869 10872 10873 10875 10877 10880 10883 10885 10888 10889 10890 10891 10892 10893 10894 10894 10896 10897 10897
10801 10807 10807 10805 10799 10814 10815 10814 10814 10821 10822 10825 10829 10829 10829 10833 10834 10835 10837 10842 10846 10848 10852 10855 10857 10862 10865 10867 10868 10871 10873 10876 10878 10880 10883 10884 10885 10886 10888 10890 10891 10892 10893 10892
10779 10787 10789 10787 10780 10788 10798 10798 10801 10806 10811 10811 10813 10815 10815 10818 10820 10824 10827 10832 10836 10840 10843 10846 10850 10853 10855 10859 10861 10863 10866 10869 10871 10873 10875 10878 10880 10882 10884 10885 10888 10888 10887 10886
10758 10758 10765 10768 10765 10764 10774 10781 10786 10788 10791 10793 10795 10798 10801 10804 10807 10811 10815 10820 10825 10831 10835 10837 10841 10845 10849 10852 10855 10858 10860 10863 10865 10867 10869 10871 10874 10877 10878 10880 10882 10881 10881 10880